Terminal Aerodrome Forecast
Issued by NWS Grand Forks, ND

Home | Current Version | Previous Version | Graphics & Text | Print | Product List | Glossary On
Versions: 1 2 3 4 5 6 7 8 9 10 11 12 13 14 15 16 17 18 19 20 21 22 23 24 25 26 27 28 29 30
382
FTUS43 KFGF 132045 AAC
TAFFAR
TAF AMD
KFAR 132045Z 1321/1418 35020KT P6SM OVC015
     FM140000 36016KT P6SM BKN030
     FM140400 34006KT P6SM BKN015
     FM140800 27004KT P6SM OVC015
     FM141600 33008KT P6SM OVC010=

USA.gov is the U.S. government's official web portal to all federal, state and local government web resources and services.